TimeEST,TemperatureF,Dew PointF,Humidity,Sea Level PressureIn,VisibilityMPH,Wind Direction,Wind SpeedMPH,Gust SpeedMPH,PrecipitationIn,Events,Conditions,WindDirDegrees,DateUTC
12:55 AM,36.1,34.3,93,30.33,10.0,Calm,Calm,-,N/A,,Clear,0,2012-11-18 05:55:00
1:55 AM,35.8,33.4,91,30.34,10.0,Calm,Calm,-,N/A,,Clear,0,2012-11-18 06:55:00
2:55 AM,35.2,33.6,94,30.33,10.0,Calm,Calm,-,N/A,,Clear,0,2012-11-18 07:55:00
3:55 AM,35.4,33.3,92,30.33,10.0,Calm,Calm,-,N/A,,Clear,0,2012-11-18 08:55:00
4:55 AM,37.0,30.7,78,30.33,10.0,Calm,Calm,-,N/A,,Clear,0,2012-11-18 09:55:00
5:55 AM,36.0,30.7,81,30.34,10.0,NNW,3.5,-,N/A,,Clear,330,2012-11-18 10:55:00
6:55 AM,34.2,29.8,84,30.35,10.0,NNW,3.5,-,N/A,,Clear,340,2012-11-18 11:55:00
7:55 AM,39.2,31.3,73,30.37,10.0,Calm,Calm,-,N/A,,Clear,0,2012-11-18 12:55:00
8:55 AM,47.5,32.9,57,30.37,10.0,NE,11.5,-,N/A,,Clear,50,2012-11-18 13:55:00
9:55 AM,52.3,36.9,56,30.36,10.0,ENE,5.8,-,N/A,,Clear,70,2012-11-18 14:55:00
10:55 AM,57.2,41.0,55,30.36,10.0,ENE,5.8,-,N/A,,Clear,70,2012-11-18 15:55:00
11:55 AM,60.3,41.4,50,30.33,10.0,Variable,5.8,-,N/A,,Clear,0,2012-11-18 16:55:00
12:55 PM,63.7,42.8,47,30.29,10.0,NNE,8.1,-,N/A,,Clear,20,2012-11-18 17:55:00
1:55 PM,66.7,44.2,44,30.27,10.0,Variable,4.6,-,N/A,,Clear,0,2012-11-18 18:55:00
2:55 PM,67.8,44.8,43,30.26,10.0,Variable,3.5,-,N/A,,Clear,0,2012-11-18 19:55:00
3:55 PM,68.4,45.1,43,30.26,10.0,Calm,Calm,-,N/A,,Clear,0,2012-11-18 20:55:00
4:55 PM,66.9,45.1,45,30.26,10.0,NNE,4.6,-,N/A,,Clear,30,2012-11-18 21:55:00
5:55 PM,57.2,45.7,65,30.27,10.0,Calm,Calm,-,N/A,,Clear,0,2012-11-18 22:55:00
6:55 PM,50.0,44.2,81,30.28,10.0,Calm,Calm,-,N/A,,Clear,0,2012-11-18 23:55:00
7:55 PM,48.0,44.2,87,30.29,10.0,Calm,Calm,-,N/A,,Clear,0,2012-11-19 00:55:00
8:55 PM,43.2,42.1,96,30.30,10.0,Calm,Calm,-,N/A,,Clear,0,2012-11-19 01:55:00
9:55 PM,42.6,41.4,95,30.31,10.0,WNW,3.5,-,N/A,,Clear,290,2012-11-19 02:55:00
10:55 PM,43.3,41.9,95,30.31,10.0,Calm,Calm,-,N/A,,Clear,0,2012-11-19 03:55:00
11:21 PM,42.8,42.8,100,30.31,2.5,Calm,Calm,-,N/A,,Clear,0,2012-11-19 04:21:00
11:23 PM,42.8,42.8,100,30.31,1.8,Calm,Calm,-,N/A,,Clear,0,2012-11-19 04:23:00
11:25 PM,42.8,42.8,100,30.31,1.5,Calm,Calm,-,N/A,,Clear,0,2012-11-19 04:25:00
11:29 PM,42.8,42.8,100,30.31,1.8,Calm,Calm,-,N/A,,Clear,0,2012-11-19 04:29:00
11:30 PM,42.8,42.8,100,30.31,2.0,Calm,Calm,-,N/A,,Clear,0,2012-11-19 04:30:00
11:32 PM,42.8,42.8,100,30.31,3.0,Calm,Calm,-,N/A,,Clear,0,2012-11-19 04:32:00
11:40 PM,42.8,42.8,100,30.31,2.5,Calm,Calm,-,N/A,,Clear,0,2012-11-19 04:40:00
11:44 PM,42.8,42.8,100,30.31,1.8,Calm,Calm,-,N/A,,Clear,0,2012-11-19 04:44:00
11:45 PM,42.8,42.8,100,30.31,1.5,Calm,Calm,-,N/A,,Clear,0,2012-11-19 04:45:00
11:46 PM,42.8,41.0,93,30.31,1.0,Calm,Calm,-,N/A,,Clear,0,2012-11-19 04:46:00
11:48 PM,41.0,41.0,100,30.31,0.8,Calm,Calm,-,N/A,,Clear,0,2012-11-19 04:48:00
11:51 PM,41.0,41.0,100,30.31,0.5,Calm,Calm,-,N/A,Fog,Fog,0,2012-11-19 04:51:00
11:54 PM,42.8,42.8,100,30.31,0.8,Calm,Calm,-,N/A,,Clear,0,2012-11-19 04:54:00
11:55 PM,42.6,42.4,99,30.31,0.8,Calm,Calm,-,N/A,,Clear,0,2012-11-19 04:55:00
11:56 PM,42.8,42.8,100,30.31,1.0,Calm,Calm,-,N/A,,Clear,0,2012-11-19 04:56:00
11:58 PM,42.8,42.8,100,30.31,1.5,Calm,Calm,-,N/A,,Clear,0,2012-11-19 04:58:00
11:59 PM,42.8,42.8,100,30.31,1.8,Calm,Calm,-,N/A,,Clear,0,2012-11-19 04:59:00